TimeEDT,TemperatureF,Dew PointF,Humidity,Sea Level PressureIn,VisibilityMPH,Wind Direction,Wind SpeedMPH,Gust SpeedMPH,PrecipitationIn,Events,Conditions,WindDirDegrees,DateUTC
1:52 AM,44.1,34.0,68,30.07,10.0,WSW,3.5,-,N/A,,Clear,240,2012-10-12 05:52:00
2:52 AM,46.9,34.0,61,30.05,10.0,South,4.6,-,N/A,,Clear,170,2012-10-12 06:52:00
3:52 AM,39.0,34.0,82,30.03,10.0,Calm,Calm,-,N/A,,Clear,0,2012-10-12 07:52:00
4:52 AM,37.9,35.1,89,30.02,10.0,Calm,Calm,-,N/A,,Clear,0,2012-10-12 08:52:00
6:52 AM,37.9,35.1,89,30.01,10.0,Calm,Calm,-,N/A,,Clear,0,2012-10-12 10:52:00
7:52 AM,42.1,37.9,85,30.03,10.0,Calm,Calm,-,N/A,,Clear,0,2012-10-12 11:52:00
8:52 AM,48.0,37.9,68,30.06,10.0,WNW,8.1,-,0.00,Rain,Light Rain,290,2012-10-12 12:52:00
10:52 AM,46.0,37.0,71,30.10,10.0,WNW,4.6,-,0.01,,Overcast,290,2012-10-12 14:52:00
11:52 AM,48.0,37.0,66,30.10,10.0,NW,6.9,-,N/A,,Overcast,310,2012-10-12 15:52:00
12:37 PM,46.4,35.6,66,30.09,10.0,North,9.2,-,N/A,,Overcast,360,2012-10-12 16:37:00
1:02 PM,46.4,35.6,66,30.10,10.0,NNW,8.1,18.4,0.00,Rain,Light Rain,330,2012-10-12 17:02:00
1:52 PM,51.1,32.0,48,30.10,10.0,NW,11.5,24.2,0.00,,Scattered Clouds,310,2012-10-12 17:52:00
3:52 PM,51.1,24.1,35,30.14,10.0,NW,15.0,23.0,N/A,,Clear,320,2012-10-12 19:52:00
4:52 PM,52.0,24.1,34,30.16,10.0,NNW,20.7,27.6,N/A,,Partly Cloudy,340,2012-10-12 20:52:00
5:52 PM,48.0,24.1,39,30.20,10.0,NNW,8.1,-,N/A,,Clear,330,2012-10-12 21:52:00
6:52 PM,45.0,24.1,44,30.25,10.0,NW,9.2,18.4,N/A,,Clear,320,2012-10-12 22:52:00
7:52 PM,44.1,24.1,45,30.29,10.0,NW,11.5,18.4,N/A,,Clear,320,2012-10-12 23:52:00
8:52 PM,39.9,23.0,51,30.34,10.0,North,9.2,-,N/A,,Clear,350,2012-10-13 00:52:00
9:52 PM,39.0,21.9,50,30.36,10.0,North,3.5,-,N/A,,Clear,360,2012-10-13 01:52:00
10:52 PM,37.0,23.0,57,30.39,10.0,North,3.5,-,N/A,,Clear,10,2012-10-13 02:52:00
11:52 PM,34.0,24.1,67,30.39,10.0,NW,4.6,-,N/A,,Clear,320,2012-10-13 03:52:00